Flag for Norway Weather past 2 weeks in Randaberg, Norway

Now
57 °F

Fog.


Feels Like: 57 °F
Forecast: 53 / 56 °F
Wind: 1 mph from South

Location: Stavanger / Sola

Current Time: Jul 8, 2015 at 5:20:38 AM

Latest Report: Jul 8, 2015 at 4:00 AM


Visibility: 3 mi

Pressure: 29.32 "Hg

Humidity: 98%

Dew point: 57 °F

Location of RandabergLocation

Historic Weather in Randaberg — Graph

°F

Randaberg temperature yesterday

Maximum temperature yesterday: 61 °F (at 2:00 PM)
Minimum temperature yesterday: 54 °F (at 6:00 AM)
Average temperature yesterday: 57 °F

Past Weeks' High & Low Weather Summary

 TemperatureHumidityPressure
High83 °F (Jul 2, 3:00 PM)99% (Jun 28, 5:00 AM)30.29 "Hg (Jun 28, 5:00 AM)
Low46 °F (Jun 26, 4:00 AM)36% (Jul 2, 3:00 PM)29.32 "Hg (Jul 8, 4:00 AM)
Average59 °F79%30.00 "Hg
* Reported Jun 23 4:00 AM — Jul 8 4:00 AM, Randaberg, Weather by CustomWeather, © 2015

Note: Actual official high and low records may vary slightly from our data, if they occured in-between our weather recording intervals... More about our weather records

Advertising

Randaberg weather history for previous 24 hours

 ConditionsComfort  
Time TempWeatherWind HumidityBarometerVisibility
4:00 AM
Wed, Jul 8
57 °FFog.1 mph98%29.32 "Hg3 mi
3:00 AM58 °FOvercast.1 mph98%29.35 "Hg3 mi
2:00 AM58 °FLow clouds.2 mph97%29.38 "Hg3 mi
1:00 AM58 °FOvercast.1 mph97%29.38 "Hg5 mi
12:00 AM58 °FDrizzle. Dense fog.2 mph96%29.41 "Hg2 mi
11:00 PM
Tue, Jul 7
58 °FOvercast.3 mph93%29.44 "Hg25 mi
10:00 PM58 °FRain showers. Overcast.5 mph93%29.44 "Hg18 mi
9:00 PM59 °FOvercast.5 mph91%29.47 "Hg25 mi
8:00 PM60 °FOvercast.6 mph89%29.47 "Hg14 mi
7:00 PM59 °FOvercast.5 mph90%29.50 "Hg31 mi
6:00 PM59 °FOvercast.3 mph90%29.55 "Hg31 mi
5:00 PM58 °FLight rain. Partly sunny.5 mph94%29.59 "Hg5 mi
4:00 PM59 °FRain. Fog.5 mph86%29.62 "Hg3 mi
3:00 PM60 °FOvercast.6 mph80%29.65 "Hg16 mi
2:00 PM61 °FOvercast.5 mph75%29.67 "Hg19 mi
1:00 PM59 °FOvercast.5 mph80%29.70 "Hg11 mi
12:00 PM59 °FOvercast.3 mph76%29.72 "Hg22 mi
11:00 AM57 °FPassing clouds.3 mph79%29.75 "Hg15 mi
10:00 AM56 °FPassing clouds.3 mph76%29.76 "Hg14 mi
9:00 AM55 °FOvercast.2 mph77%29.77 "Hg18 mi
8:00 AM55 °FOvercast.2 mph78%29.78 "Hg19 mi
7:00 AM56 °FSunny.1 mph76%29.80 "Hg19 mi
6:00 AM54 °FPartly sunny.2 mph81%29.81 "Hg19 mi
Weather by CustomWeather, © 2015

See weather overviewHow to use our weather pages